Location: Murdochville
(48.9591°N, 65.4950°W)
Time: 22:46:57
(UTC-04:00)

Envisat - Pass Details

Date: 25 April 2026
Orbit: 761 x 762 km, 98.4° (Epoch: 15 May)

Event Time Altitude Azimuth Distance (km) Brightness Sun altitude
Rises 02:37:03 0° 19° (NNE) 3,235 7.6 -20.8°
Reaches altitude 10° 02:39:28 10° 25° (NNE) 2,304 6.6 -20.6°
Maximum altitude 02:44:21 47° 99° (E) 1,010 3.8 -20.1°
Enters shadow 02:47:25 21° 163° (SSE) 1,648 4.4 -19.8°
